Accueil
METAR-TAF:

METAR-TAF

Aéroports :

Weatherford, Oklahoma, États-Unis

latitude: 35-32-45N, longitude: 098-40-07W, altitude: 489 m

Observation

Le bulletin a été fait il y a 24 minutes, à 18:55 UTC
Vent 4 kt de est/sud-est
Température 33°C
Humidité 46%
Pression 1017 hPa
Visibilité: 16.1 km
Ciel clair

METAR: KOJA 151855Z AUTO 11004KT 10SM CLR 33/20 A3002 RMK AO2

Heure: 14:19 (19:19 UTC)


TAF: absent

Observations et prévisions météorologiques de plus de 4000 aéroports (messages METAR et TAF).

Les stations disponibles sont représentées par des disques jaunes et rouges sur la carte.

Passer la souris dessus pour voir le nom de la station.

Cliquer dessus pour voir les observations et prévisions météorologiques.

Pour changer de carte: cliquez sur les boutons verts avec une croix noire pour zoomer, sur le bouton vert avec un tiret pour effectuer un zoom arrière, ou sur les flèches vertes pour les cartes adjacentes.


METAR-TAF: